Satellite: ORSTED
Catalog number: 25635
Epoch time:      103024.52743192
Element set:     814 
Inclination:       96.4477 deg
RA of node:        16.7583 deg
Eccentricity:    0.0146701
Arg of perigee:    48.8546 deg
Mean anomaly:     312.5199 deg
Mean motion:   14.44789148 rev/day
Decay rate:    8.6399E-006 rev/day^2
Epoch rev:           20632
Checksum:              338

Satellite: SUNSAT
Catalog number: 25636
Epoch time:      103022.95040014
Element set:     713 
Inclination:       96.4512 deg
RA of node:        14.2714 deg
Eccentricity:    0.0150611
Arg of perigee:    59.9570 deg
Mean anomaly:     301.6467 deg
Mean motion:   14.42927094 rev/day
Decay rate:    4.4799E-006 rev/day^2
Epoch rev:           20597
Checksum:              296

Satellite: UOSAT 12
Catalog number: 25693
Epoch time:      103024.48740410
Element set:     640 
Inclination:       64.5586 deg
RA of node:        87.5536 deg
Eccentricity:    0.0018103
Arg of perigee:   317.3326 deg
Mean anomaly:      42.6370 deg
Mean motion:   14.76359201 rev/day
Decay rate:    4.3499E-006 rev/day^2
Epoch rev:           20255
Checksum:              298

Satellite: FENGYUN 1C
Catalog number: 25730
Epoch time:      103024.56350509
Element set:     750 
Inclination:       98.6351 deg
RA of node:        49.9013 deg
Eccentricity:    0.0015335
Arg of perigee:    75.1218 deg
Mean anomaly:     285.1648 deg
Mean motion:   14.11730815 rev/day
Decay rate:   -2.6999E-007 rev/day^2
Epoch rev:           19110
Checksum:              299

Satellite: ASTRA 1H
Catalog number: 25785
Epoch time:      103023.00000000
Element set:     369 
Inclination:        0.0122 deg
RA of node:       319.8851 deg
Eccentricity:    0.0002995
Arg of perigee:    65.1991 deg
Mean anomaly:     116.0174 deg
Mean motion:    1.00273184 rev/day
Decay rate:    1.2299E-006 rev/day^2
Epoch rev:            1323
Checksum:              243

Satellite: TERRA
Catalog number: 25994
Epoch time:      103024.24845657
Element set:     632 
Inclination:       98.2030 deg
RA of node:       100.8573 deg
Eccentricity:    0.0001096
Arg of perigee:    75.1755 deg
Mean anomaly:     284.9552 deg
Mean motion:   14.57102558 rev/day
Decay rate:    5.8300E-006 rev/day^2
Epoch rev:           16498
Checksum:              314

Satellite: JAWSAT
Catalog number: 26061
Epoch time:      103024.52739730
Element set:     748 
Inclination:      100.2111 deg
RA of node:        76.9442 deg
Eccentricity:    0.0035013
Arg of perigee:   351.1823 deg
Mean anomaly:       8.8740 deg
Mean motion:   14.37796670 rev/day
Decay rate:    7.0099E-006 rev/day^2
Epoch rev:           15693
Checksum:              292

Satellite: OPAL
Catalog number: 26063
Epoch time:      103024.18407022
Element set:     705 
Inclination:      100.2162 deg
RA of node:        74.1539 deg
Eccentricity:    0.0037337
Arg of perigee:   358.6996 deg
Mean anomaly:       1.4076 deg
Mean motion:   14.35470991 rev/day
Decay rate:    2.1099E-006 rev/day^2
Epoch rev:           15674
Checksum:              291

Satellite: ASUSAT
Catalog number: 26065
Epoch time:      103024.55962358
Element set:     716 
Inclination:      100.2156 deg
RA of node:        74.7409 deg
Eccentricity:    0.0037343
Arg of perigee:   359.1174 deg
Mean anomaly:       0.9934 deg
Mean motion:   14.35497929 rev/day
Decay rate:    2.4799E-006 rev/day^2
Epoch rev:           15679
Checksum:              332

Satellite: GOES 11
Catalog number: 26352
Epoch time:      103023.54107605
Element set:     989 
Inclination:        0.0799 deg
RA of node:       109.1583 deg
Eccentricity:    0.0004533
Arg of perigee:   168.8003 deg
Mean anomaly:     286.6241 deg
Mean motion:    1.00262743 rev/day
Decay rate:   -3.4999E-007 rev/day^2
Epoch rev:             997
Checksum:              305

Satellite: EUTELSAT W4
Catalog number: 26369
Epoch time:      103023.88152922
Element set:     345 
Inclination:        0.0471 deg
RA of node:        34.6214 deg
Eccentricity:    0.0006483
Arg of perigee:   267.5225 deg
Mean anomaly:     174.0674 deg
Mean motion:    1.00274525 rev/day
Decay rate:    1.5800E-006 rev/day^2
Epoch rev:             979
Checksum:              278

Satellite: FENGYUN 2B
Catalog number: 26382
Epoch time:      103023.92863609
Element set:     774 
Inclination:        0.6313 deg
RA of node:       287.0785 deg
Eccentricity:    0.0000394
Arg of perigee:   147.0034 deg
Mean anomaly:     127.2337 deg
Mean motion:    1.00261395 rev/day
Decay rate:   -3.2299E-006 rev/day^2
Epoch rev:             945
Checksum:              290

Satellite: EUTELSAT W1
Catalog number: 26487
Epoch time:      103023.34201314
Element set:     346 
Inclination:        0.0021 deg
RA of node:       194.6739 deg
Eccentricity:    0.0004633
Arg of perigee:   113.2179 deg
Mean anomaly:     307.4261 deg
Mean motion:    1.00269860 rev/day
Decay rate:    9.9999E-009 rev/day^2
Epoch rev:             875
Checksum:              287

Satellite: ASTRA 2B
Catalog number: 26494
Epoch time:      103023.00000000
Element set:     252 
Inclination:        0.0178 deg
RA of node:       354.5658 deg
Eccentricity:    0.0005000
Arg of perigee:   302.8402 deg
Mean anomaly:     212.7100 deg
Mean motion:    1.00276704 rev/day
Decay rate:    1.5399E-006 rev/day^2
Epoch rev:             865
Checksum:              221

Satellite: NOAA 16
Catalog number: 26536
Epoch time:      103024.07011636
Element set:     179 
Inclination:       98.9001 deg
RA of node:       332.5467 deg
Eccentricity:    0.0011054
Arg of perigee:    21.9216 deg
Mean anomaly:     338.2462 deg
Mean motion:   14.11888047 rev/day
Decay rate:    1.1900E-006 rev/day^2
Epoch rev:           12055
Checksum:              276

Satellite: SAUDISAT 1A
Catalog number: 26545
Epoch time:      103024.39140929
Element set:     402 
Inclination:       64.5592 deg
RA of node:       109.3027 deg
Eccentricity:    0.0053690
Arg of perigee:   242.8317 deg
Mean anomaly:     116.7273 deg
Mean motion:   14.78913089 rev/day
Decay rate:    1.4590E-005 rev/day^2
Epoch rev:           12549
Checksum:              308

Satellite: UNISAT
Catalog number: 26547
Epoch time:      103023.98494142
Element set:     421 
Inclination:       64.5571 deg
RA of node:       112.8828 deg
Eccentricity:    0.0060869
Arg of perigee:   245.3243 deg
Mean anomaly:     114.1522 deg
Mean motion:   14.79633895 rev/day
Decay rate:    2.7460E-005 rev/day^2
Epoch rev:           12540
Checksum:              403

Satellite: TIUNGSAT 1
Catalog number: 26548
Epoch time:      103023.23736702
Element set:     405 
Inclination:       64.5583 deg
RA of node:       106.0306 deg
Eccentricity:    0.0046953
Arg of perigee:   242.2571 deg
Mean anomaly:     117.3762 deg
Mean motion:   14.81179242 rev/day
Decay rate:    2.0370E-005 rev/day^2
Epoch rev:           12546
Checksum:              280

Satellite: SAUDISAT 1B
Catalog number: 26549
Epoch time:      103023.39437455
Element set:     673 
Inclination:       64.5507 deg
RA of node:       116.3436 deg
Eccentricity:    0.0058195
Arg of perigee:   243.1378 deg
Mean anomaly:     116.3759 deg
Mean motion:   14.77851213 rev/day
Decay rate:    1.6419E-005 rev/day^2
Epoch rev:           12527
Checksum:              321

Satellite: AMSAT OSCAR 40
Catalog number: 26609
Epoch time:      103018.40123252
Element set:     305 
Inclination:        7.9708 deg
RA of node:        69.8773 deg
Eccentricity:    0.7935358
Arg of perigee:   134.4243 deg
Mean anomaly:     325.7472 deg
Mean motion:    1.25596623 rev/day
Decay rate:   -1.1000E-007 rev/day^2
Epoch rev:            1019
Checksum:              372

Satellite: GOES 12
Catalog number: 26871
Epoch time:      103023.50571230
Element set:     786 
Inclination:        0.3918 deg
RA of node:       277.1770 deg
Eccentricity:    0.0004237
Arg of perigee:   349.9999 deg
Mean anomaly:     294.2422 deg
Mean motion:    1.00365246 rev/day
Decay rate:   -1.1199E-006 rev/day^2
Epoch rev:             557
Checksum:              306

Satellite: PCSAT
Catalog number: 26931
Epoch time:      103023.91086242
Element set:     384 
Inclination:       67.0481 deg
RA of node:       321.6671 deg
Eccentricity:    0.0005244
Arg of perigee:   260.4971 deg
Mean anomaly:      99.5531 deg
Mean motion:   14.29101522 rev/day
Decay rate:    2.5800E-006 rev/day^2
Epoch rev:            6868
Checksum:              290

Satellite: SAPPHIRE
Catalog number: 26932
Epoch time:      103024.52193068
Element set:     379 
Inclination:       67.0579 deg
RA of node:       319.8041 deg
Eccentricity:    0.0005817
Arg of perigee:   241.4676 deg
Mean anomaly:     118.5841 deg
Mean motion:   14.29285121 rev/day
Decay rate:    1.9500E-006 rev/day^2
Epoch rev:            6879
Checksum:              318

Satellite: ENVISAT
Catalog number: 27386
Epoch time:      103024.46524707
Element set:     875 
Inclination:       98.5459 deg
RA of node:        93.3778 deg
Eccentricity:    0.0001000
Arg of perigee:    97.6067 deg
Mean anomaly:     262.5231 deg
Mean motion:   14.32248133 rev/day
Decay rate:    2.8500E-006 rev/day^2
Epoch rev:            4715
Checksum:              302

Satellite: IDEFIX/ARIANE 
Catalog number: 27422
Epoch time:      103024.51746445
Element set:     216 
Inclination:       98.6991 deg
RA of node:       103.8308 deg
Eccentricity:    0.0012010
Arg of perigee:   220.1794 deg
Mean anomaly:     139.8500 deg
Mean motion:   14.27956534 rev/day
Decay rate:    3.0700E-006 rev/day^2
Epoch rev:            3788
Checksum:              293

